[ show orbit diagram ]
Orbital Elements at Epoch 2459200.5 (2020-Dec-17.0) TDB
Reference: JPL 30 (heliocentric ecliptic J2000)
Element | Value | Uncertainty (1-sigma) | Units |
e | .2359221563489478 | 3.4522e-08 | |
a | 2.192134211335724 | 4.8823e-09 | au |
q | 1.6749611811911 | 7.4388e-08 | au |
i | 5.02819788575318 | 2.7071e-06 | deg |
node | 283.5806232362391 | 4.5171e-05 | deg |
peri | 42.1227642827795 | 4.5828e-05 | deg |
M | 56.5748938812317 | 8.0589e-06 | deg |
tp | 2459014.196770219644 (2020-Jun-13.69677022) | 2.6413e-05 | TDB |
period | 1185.493389730912 3.25 | 3.9605e-06 1.084e-08 | d yr |
n | .303671031081594 | 1.0145e-09 | deg/d |
Q | 2.709307241480348 | 6.0341e-09 | au |
|
| | Orbit Determination Parameters
Additional Information
|
[ show covariance matrix ]
Physical Parameter Table
Parameter |
Symbol |
Value |
Units |
Sigma |
Reference |
Notes |
absolute magnitude |
H |
14.18 |
|
n/a |
E2021B10 |
|
diameter |
diameter |
3.449 |
km |
0.059 |
urn:nasa:pds:neowise_diameters_albedos::2.0[mainbelt] (http://adsabs.harvard.edu/abs/2012ApJ...759L...8M) |
|
rotation period |
rot_per |
2.7113 |
h |
n/a |
LCDB (Rev. 2020-October); Warner et al., 2009 |
Published Reference List: [Wetterer, C.J.; Burns, M.S.; Murphy, K.L. (1998) Minor Planet Bull. 25, 19-20.] [Owings, L.E.; Warner, B.D.; Pravec, P.; Kusnirak, P. (2011) Minor Planet Bull. 38, 13-14.] |
geometric albedo |
albedo |
0.215 |
|
0.031 |
urn:nasa:pds:neowise_diameters_albedos::2.0[mainbelt] (http://adsabs.harvard.edu/abs/2011ApJ...741...68M) |
|
|
3145 Walter Adams (1955 RY) Discovered 1955-Sep-14 by Goethe Link Observatory at Brooklyn |
Discovered by the Indiana Asteroid Program, Goethe Link Observatory, University of Indiana. This program was conceived and directed by F. K. Edmondson; the plates were blinked and measured astrometrically by B. Potter and, following her retirement, by D. Owings; and the photometry was performed under the direction of T. Gehrels. During the years 1947-1967, in which the plates were exposed, a large number of people participated in various aspects of the program. |
Reference: DISCOVERY.DB | Last Updated: 2003-08-29 |
|
[ show close-approach data ]
Alternate Designations
1955 RY = 1955 SY1 = 1955 TD = 1981 RS2 |
|
|
|